N4GGC Weather Reports


time (UTC)temp
C
wind
direction
speed
KPH
gust
KPH
rain 1hr
cm
rain 24hr
cm
rain mn
cm
humidity
%
barometer
mb
20260505125032 18 351 0.0 0.0 0.00 0.00 0.00 65 1015.5
20260505124524 18 351 0.0 0.0 0.00 0.00 0.00 68 1015.6
20260505124015 17 351 0.0 0.0 0.00 0.00 0.00 69 1015.6
20260505123507 17 351 0.0 0.0 0.00 0.00 0.00 67 1015.5
20260505123004 17 351 0.0 0.0 0.00 0.00 0.00 71 1015.4
20260505122452 17 351 0.0 0.0 0.00 0.00 0.00 69 1015.5
20260505122210 17 351 0.0 0.0 0.00 0.00 0.00 73 1015.5
20260505121442 16 351 0.0 0.0 0.00 0.00 0.00 73 1015.4
20260505120926 15 351 0.0 0.0 0.00 0.00 0.00 75 1015.2
20260505120424 14 351 0.0 0.0 0.00 0.00 0.00 78 1015.1
20260505115918 13 351 0.0 0.0 0.00 0.00 0.00 78 1015.1
20260505115408 13 351 0.0 0.0 0.00 0.00 0.00 76 1015.0
20260505114852 13 351 0.0 0.0 0.00 0.00 0.00 77 1014.8
20260505114346 12 351 0.0 0.0 0.00 0.00 0.00 77 1014.6
20260505113830 12 351 0.0 0.0 0.00 0.00 0.00 77 1014.5
20260505113324 12 351 0.0 0.0 0.00 0.00 0.00 77 1014.6
20260505112819 12 351 0.0 0.0 0.00 0.00 0.00 76 1014.5
20260505112315 12 351 0.0 0.0 0.00 0.00 0.00 76 1014.4
20260505111816 12 351 0.0 0.0 0.00 0.00 0.00 77 1014.4
20260505111300 12 351 0.0 0.0 0.00 0.00 0.00 77 1014.3
20260505110753 11 351 0.0 0.0 0.00 0.00 0.00 77 1014.3
20260505110248 11 351 0.0 0.0 0.00 0.00 0.00 76 1014.2
20260505102131 12 351 0.0 0.0 0.00 0.00 0.00 72 1013.5
20260505101628 12 351 0.0 0.0 0.00 0.00 0.00 72 1013.6
20260505101127 12 351 0.0 0.0 0.00 0.00 0.00 73 1013.7
20260505100605 12 351 0.0 0.0 0.00 0.00 0.00 71 1013.6
20260505100101 12 351 0.0 0.0 0.00 0.00 0.00 72 1013.8
20260505095819 12 351 0.0 0.0 0.00 0.00 0.00 71 1013.8
20260505095048 12 351 0.0 0.0 0.00 0.00 0.00 71 1013.8
20260505094532 12 351 0.0 0.0 0.00 0.00 0.00 71 1013.8
20260505094026 12 351 0.0 0.0 0.00 0.00 0.00 71 1013.8
20260505093525 12 351 0.0 0.0 0.00 0.00 0.00 71 1013.9
20260505093026 12 351 0.0 0.0 0.00 0.00 0.00 71 1013.8
20260505092518 12 351 0.0 0.0 0.00 0.00 0.00 71 1013.8
20260505092225 12 351 0.0 0.0 0.00 0.00 0.00 71 1013.9
20260505091456 12 351 0.0 0.0 0.00 0.00 0.00 71 1013.9
20260505090957 12 351 0.0 0.0 0.00 0.00 0.00 70 1013.8
20260505090428 12 351 0.0 0.0 0.00 0.00 0.00 69 1013.8
20260505085902 12 351 0.0 0.0 0.00 0.00 0.00 70 1013.6
20260505085619 12 351 0.0 0.0 0.00 0.00 0.00 70 1013.6
20260505084832 12 351 0.0 0.0 0.00 0.00 0.00 71 1013.5
20260505084249 12 351 0.0 0.0 0.00 0.00 0.00 70 1013.4
20260505083747 12 351 0.0 0.0 0.00 0.00 0.00 70 1013.4
20260505083246 12 351 0.0 0.0 0.00 0.00 0.00 70 1013.4
20260505082736 12 351 0.0 0.0 0.00 0.00 0.00 70 1013.5
20260505082238 12 351 0.0 0.0 0.00 0.00 0.00 69 1013.4
20260505081728 12 351 0.0 0.0 0.00 0.00 0.00 70 1013.3
20260505081230 12 351 0.0 0.0 0.00 0.00 0.00 70 1013.2
20260505080700 12 351 0.0 0.0 0.00 0.00 0.00 69 1013.3
20260505080201 12 351 0.0 0.0 0.00 0.00 0.00 70 1013.3
20260505075644 12 351 0.0 0.0 0.00 0.00 0.00 71 1013.3
20260505075403 12 351 0.0 0.0 0.00 0.00 0.00 71 1013.2
20260505074642 12 351 0.0 0.0 0.00 0.00 0.00 70 1013.2
20260505074135 12 351 0.0 0.0 0.00 0.00 0.00 70 1013.1
20260505073910 12 351 0.0 0.0 0.00 0.00 0.00 71 1013.0
20260505073115 12 351 0.0 0.0 0.00 0.00 0.00 70 1013.0
20260505072608 12 351 0.0 0.0 0.00 0.00 0.00 71 1013.0
20260505072036 12 351 0.0 0.0 0.00 0.00 0.00 70 1012.9
20260505071522 12 351 0.0 0.0 0.00 0.00 0.00 70 1013.0
20260505071013 12 351 0.0 0.0 0.00 0.00 0.00 70 1012.9
20260505070720 12 351 0.0 0.0 0.00 0.00 0.00 70 1012.9
20260505070213 12 351 0.0 0.0 0.00 0.00 0.00 70 1012.9
20260505065445 12 351 0.0 0.0 0.00 0.00 0.00 69 1012.9
20260505065207 12 351 0.0 0.0 0.00 0.00 0.00 69 1013.0
20260505064443 12 351 0.0 0.0 0.00 0.00 0.00 69 1013.0
20260505063937 13 351 0.0 0.0 0.00 0.00 0.00 70 1013.0
20260505063655 13 351 0.0 0.0 0.00 0.00 0.00 70 1013.0
20260505062936 13 351 0.0 0.0 0.00 0.00 0.00 69 1013.0
20260505062400 13 351 0.0 0.0 0.00 0.00 0.00 69 1013.0
20260505061853 13 351 0.0 0.0 0.00 0.00 0.00 70 1012.9
20260505061347 13 351 0.0 0.0 0.00 0.00 0.00 69 1013.0
20260505060842 13 351 0.0 0.0 0.00 0.00 0.00 68 1013.0
20260505060530 13 351 0.0 0.0 0.00 0.00 0.00 68 1013.0
20260505055806 13 351 0.0 0.0 0.00 0.00 0.00 68 1013.0
20260505055305 13 351 0.0 0.0 0.00 0.00 0.00 70 1013.1
20260505055020 13 351 0.0 0.0 0.00 0.00 0.00 69 1013.0
20260505054258 13 351 0.0 0.0 0.00 0.00 0.00 68 1013.0
20260505053752 13 351 0.0 0.0 0.00 0.00 0.00 68 1013.0
20260505053248 13 351 0.0 0.0 0.00 0.00 0.00 68 1013.0
20260505052744 13 351 0.0 0.0 0.00 0.00 0.00 68 1012.9
20260505052244 13 351 0.0 0.0 0.00 0.00 0.00 69 1013.0
20260505051743 13 351 0.0 0.0 0.00 0.00 0.00 69 1012.9
20260505051236 13 351 0.0 0.0 0.00 0.00 0.00 69 1012.9
20260505050954 13 351 0.0 0.0 0.00 0.00 0.00 69 1013.0
20260505050234 14 351 0.0 0.0 0.00 0.00 0.00 69 1012.9
20260505041616 14 351 0.0 0.0 0.00 0.00 0.00 69 1013.0
20260505041332 14 351 0.0 0.0 0.00 0.00 0.00 68 1013.0
20260505040606 14 351 0.0 0.0 0.00 0.00 0.00 69 1013.0
20260505040054 15 351 0.0 0.0 0.00 0.00 0.00 69 1013.1
20260505035552 15 351 0.0 0.0 0.00 0.00 0.00 69 1013.1
20260505035306 15 351 0.0 0.0 0.00 0.00 0.00 69 1013.2
20260505034540 15 351 0.0 0.0 0.00 0.00 0.00 69 1013.2
20260505034036 15 351 0.0 0.0 0.00 0.00 0.00 69 1013.2
20260505033524 15 351 0.0 0.0 0.00 0.00 0.00 70 1013.2
20260505033004 15 351 0.0 0.0 0.00 0.00 0.00 70 1013.2
20260505032500 15 351 0.0 0.0 0.00 0.00 0.00 70 1013.1
20260505031945 15 351 0.0 0.0 0.00 0.00 0.00 69 1013.2
20260505031648 15 351 0.0 0.0 0.00 0.00 0.00 70 1013.2
20260505030923 15 351 0.0 0.0 0.00 0.00 0.00 70 1013.2
20260505030349 15 351 0.0 0.0 0.00 0.00 0.00 70 1013.2
20260505025849 15 351 0.0 0.0 0.00 0.00 0.00 70 1013.2
20260505025618 15 351 0.0 0.0 0.00 0.00 0.00 71 1013.4
20260505024850 15 351 0.0 0.0 0.00 0.00 0.00 71 1013.3
20260505024349 15 351 0.0 0.0 0.00 0.00 0.00 70 1013.3
20260505023849 15 351 0.0 0.0 0.00 0.00 0.00 70 1013.4
20260505023350 15 351 0.0 0.0 0.00 0.00 0.00 69 1013.3
20260505022842 15 351 0.0 0.0 0.00 0.00 0.00 70 1013.3
20260505022558 15 351 0.0 0.0 0.00 0.00 0.00 70 1013.5
20260505021820 16 351 0.0 0.0 0.00 0.00 0.00 70 1013.5
20260505021313 16 351 0.0 0.0 0.00 0.00 0.00 70 1013.5
20260505020751 16 351 0.0 0.0 0.00 0.00 0.00 70 1013.4
20260505020248 16 351 0.0 0.0 0.00 0.00 0.00 70 1013.5
20260505015746 15 351 0.0 0.0 0.00 0.00 0.00 71 1013.4
20260505015248 15 351 0.0 0.0 0.00 0.00 0.00 71 1013.4
20260505014734 15 351 0.0 0.0 0.00 0.00 0.00 71 1013.4
20260505014230 15 351 0.0 0.0 0.00 0.00 0.00 71 1013.3
20260505013646 16 351 0.0 0.0 0.00 0.00 0.00 71 1013.4
20260505013146 16 351 0.0 0.0 0.00 0.00 0.00 71 1013.2
20260505012634 16 351 0.0 0.0 0.00 0.00 0.00 70 1013.2
20260505012128 16 351 0.0 0.0 0.00 0.00 0.00 70 1013.1
20260505011855 16 351 0.0 0.0 0.00 0.00 0.00 69 1013.0
20260505011126 16 351 0.0 0.0 0.00 0.00 0.00 69 1013.0
20260505010621 16 351 0.0 0.0 0.00 0.00 0.00 69 1013.0
20260505010055 16 351 0.0 0.0 0.00 0.00 0.00 68 1013.0
20260505005817 16 351 0.0 0.0 0.00 0.00 0.00 68 1012.9
20260505005043 16 351 0.0 0.0 0.00 0.00 0.00 67 1012.8
20260505004538 17 351 0.0 0.0 0.00 0.00 0.00 67 1012.8
20260505004021 17 351 0.0 0.0 0.00 0.00 0.00 67 1012.7
20260505003520 17 351 0.0 0.0 0.00 0.00 0.00 66 1012.7
20260505003009 17 351 0.0 0.0 0.00 0.00 0.00 66 1012.6
20260505002458 17 351 0.0 0.0 0.00 0.00 0.00 66 1012.6
20260505001954 17 351 0.0 0.0 0.00 0.00 0.00 67 1012.6
20260505001718 17 351 0.0 0.0 0.00 0.00 0.00 66 1012.6
20260505000943 17 351 0.0 0.0 0.00 0.00 0.00 66 1012.6
20260505000421 17 351 0.0 0.0 0.00 0.00 0.00 66 1012.6
20260504235916 17 351 0.0 0.0 0.00 0.00 0.00 66 1012.5
20260504235340 17 355 0.0 0.0 0.00 0.00 0.00 65 1012.5
20260504234832 18 355 0.0 0.0 0.00 0.00 0.00 65 1012.7
20260504234329 18 219 0.0 0.0 0.00 0.00 0.00 65 1012.6
20260504233830 18 219 0.0 0.0 0.00 0.00 0.00 64 1012.5
20260504233328 18 219 0.0 0.0 0.00 0.00 0.00 64 1012.6
20260504233046 18 219 0.0 0.0 0.00 0.00 0.00 64 1012.7
20260504232320 19 219 0.0 0.0 0.00 0.00 0.00 63 1012.7
20260504231758 19 219 0.0 0.0 0.00 0.00 0.00 61 1012.6
20260504231252 20 219 0.0 0.0 0.00 0.00 0.00 61 1012.7
20260504230727 20 219 0.0 0.0 0.00 0.00 0.00 60 1012.7
20260504230148 20 219 0.0 0.0 0.00 0.00 0.00 58 1012.8
20260504225644 20 219 0.0 0.0 0.00 0.00 0.00 57 1012.9
20260504225140 20 219 0.0 0.0 0.00 0.00 0.00 55 1012.9
20260504224636 21 219 0.0 0.0 0.00 0.00 0.00 56 1013.0
20260504224133 21 219 0.0 0.0 0.00 0.00 0.00 55 1013.0
20260504223624 21 219 0.0 0.0 0.00 0.00 0.00 55 1013.2
20260504223337 21 219 0.0 0.0 0.00 0.00 0.00 54 1013.2
20260504222827 21 219 0.0 0.0 0.00 0.00 0.00 53 1013.4
20260504222328 21 219 0.0 0.0 0.00 0.00 0.00 54 1013.4
20260504222030 22 219 0.0 0.0 0.00 0.00 0.00 53 1013.4
20260504221044 22 219 0.0 0.0 0.00 0.00 0.00 52 1013.5
20260504220802 22 219 0.0 0.0 0.00 0.00 0.00 49 1013.5
20260504220032 22 219 0.0 0.0 0.00 0.00 0.00 48 1013.6
20260504215526 22 219 0.0 0.0 0.00 0.00 0.00 47 1013.5
20260504215023 22 159 0.0 0.0 0.00 0.00 0.00 46 1013.6
20260504214514 22 104 0.0 0.0 0.00 0.00 0.00 47 1013.6
20260504214008 22 96 0.0 0.0 0.00 0.00 0.00 46 1013.8
20260504213722 22 180 0.0 0.0 0.00 0.00 0.00 48 1013.8
20260504212954 22 180 0.0 0.0 0.00 0.00 0.00 48 1013.8
20260504212708 22 181 0.0 0.0 0.00 0.00 0.00 48 1013.8
20260504211946 22 180 0.0 0.0 0.00 0.00 0.00 48 1013.7
20260504211444 22 180 0.0 0.0 0.00 0.00 0.00 47 1013.8
20260504211207 22 176 0.0 0.0 0.00 0.00 0.00 49 1013.6
20260504210438 22 176 0.0 0.0 0.00 0.00 0.00 46 1013.5
20260504205930 22 279 0.0 0.0 0.00 0.00 0.00 46 1013.5
20260504205414 22 279 0.0 0.0 0.00 0.00 0.00 45 1013.4
20260504204908 22 202 0.0 4.8 0.00 0.00 0.00 48 1013.5
20260504204404 22 210 0.0 4.8 0.00 0.00 0.00 47 1013.4
20260504203852 22 200 0.0 3.2 0.00 0.00 0.00 46 1013.5
20260504203352 22 92 0.0 0.0 0.00 0.00 0.00 45 1013.5
20260504202845 22 248 0.0 0.0 0.00 0.00 0.00 47 1013.6
20260504202346 22 248 0.0 0.0 0.00 0.00 0.00 46 1013.7
20260504201833 22 252 0.0 0.0 0.00 0.00 0.00 46 1013.8
20260504201326 22 227 0.0 0.0 0.00 0.00 0.00 44 1013.7
20260504200820 22 297 0.0 0.0 0.00 0.00 0.00 46 1013.8
20260504200310 22 190 0.0 3.2 0.00 0.00 0.00 44 1013.9
20260504195808 23 189 1.6 17.7 0.00 0.00 0.00 46 1014.0
20260504195304 22 189 3.2 19.3 0.00 0.00 0.00 44 1014.0
20260504195254 23 27 3.2 19.3 0.00 0.00 0.00 44 1014.0
20260504194251 23 138 1.6 9.7 0.00 0.00 0.00 44 1014.1
20260504194007 23 120 0.0 3.2 0.00 0.00 0.00 46 1014.1
20260504193240 22 173 0.0 8.0 0.00 0.00 0.00 46 1014.2
20260504192732 22 173 1.6 11.3 0.00 0.00 0.00 48 1014.2
20260504192450 22 134 3.2 16.1 0.00 0.00 0.00 47 1014.2
20260504191720 22 127 1.6 16.1 0.00 0.00 0.00 45 1014.3
20260504191214 22 103 0.0 0.0 0.00 0.00 0.00 46 1014.4
20260504190709 22 158 0.0 0.0 0.00 0.00 0.00 45 1014.4
20260504190157 21 159 0.0 0.0 0.00 0.00 0.00 49 1014.2
20260504185652 21 154 0.0 0.0 0.00 0.00 0.00 48 1014.4
20260504185151 22 202 0.0 0.0 0.00 0.00 0.00 47 1014.6
20260504184904 22 181 0.0 0.0 0.00 0.00 0.00 48 1014.8
20260504184138 21 223 0.0 0.0 0.00 0.00 0.00 49 1014.5
20260504183628 21 223 0.0 0.0 0.00 0.00 0.00 48 1014.6
20260504183126 21 194 0.0 0.0 0.00 0.00 0.00 48 1014.9
20260504182620 21 184 0.0 0.0 0.00 0.00 0.00 47 1015.1
20260504182116 21 28 0.0 8.0 0.00 0.00 0.00 47 1015.2
20260504181614 21 87 0.0 8.0 0.00 0.00 0.00 46 1015.2
20260504181102 21 143 1.6 8.0 0.00 0.00 0.00 44 1015.2
20260504180554 22 298 1.6 8.0 0.00 0.00 0.00 43 1015.4
20260504180048 22 281 1.6 11.3 0.00 0.00 0.00 41 1015.3
20260504175547 22 214 3.2 11.3 0.00 0.00 0.00 46 1015.5
20260504175038 22 240 3.2 11.3 0.00 0.00 0.00 43 1015.4
20260504174534 22 333 3.2 12.9 0.00 0.00 0.00 42 1015.5
20260504174025 23 270 3.2 12.9 0.00 0.00 0.00 44 1015.7
20260504173516 23 26 8.0 16.1 0.00 0.00 0.00 44 1015.6
20260504173243 22 164 8.0 16.1 0.00 0.00 0.00 44 1015.7
20260504172508 23 134 4.8 20.9 0.00 0.00 0.00 42 1015.7
20260504172225 22 172 4.8 20.9 0.00 0.00 0.00 45 1015.7
20260504171456 22 176 4.8 17.7 0.00 0.00 0.00 44 1015.7
20260504170949 21 150 8.0 17.7 0.00 0.00 0.00 46 1015.7
20260504170703 21 120 4.8 16.1 0.00 0.00 0.00 43 1015.8
20260504160345 18 138 3.2 11.3 0.00 0.00 0.00 47 1016.3
20260504150726 17 141 3.2 9.7 0.00 0.00 0.00 48 1017.0
20260504150214 17 141 1.6 9.7 0.00 0.00 0.00 49 1017.0
20260504141016 15 124 3.2 9.7 0.00 0.00 0.00 52 1016.9
20260504140504 15 124 3.2 12.9 0.00 0.00 0.00 52 1016.8
20260504130753 15 173 0.0 0.0 0.00 0.00 0.00 52 1017.1
20260504130240 15 173 0.0 0.0 0.00 0.00 0.00 51 1017.1